Weather History for Bridgeport, CT

Change the Weather History Date:

Wednesday, November 6, 2013

  Actual Average Record
Temperature  
Mean Temperature 54 °F 48 °F  
Max Temperature 61 °F 57 °F 70 °F (1948)
Min Temperature 46 °F 41 °F 27 °F (1951)
Degree Days  
Heating Degree Days 11 17  
Month to date heating degree days 90 95  
Since 1 July heating degree days 409 485  
Cooling Degree Days 0 0  
Month to date cooling degree days 0 0  
Year to date cooling degree days 1003 825  
Growing Degree Days 4 (Base 50)    
Moisture  
Dew Point 47 °F    
Average Humidity 72    
Maximum Humidity 93    
Minimum Humidity 51    
Precipitation  
Precipitation 0.00 in 0.10 in 0.52 in (2002)
Month to date precipitation 0.07 0.64  
Year to date precipitation 29.89 36.66  
Snow  
Snow 0.00 in 0.00 in 3.40 in (1953)
Month to date snowfall 0.0 0.0  
Since 1 July snowfall 0.0 0.0  
Snow Depth 0.00 in    
Sea Level Pressure  
Sea Level Pressure 30.32 in    
Wind  
Wind Speed 8 mph (SSW)    
Max Wind Speed 14 mph    
Max Gust Speed 17 mph    
Visibility 10 miles    
Events      
T = Trace of Precipitation, MM = Missing Value Source: NWS Daily Summary

Daily Weather History Graph

Daily Weather History Graph

Search for Another Location

Airport:

Trip Planner

Search our weather history database for the weather conditions in past years. The results will help you decide how hot, cold, wet, or windy it might be!

Date:

Astronomy

Nov. 06, 2013 Rise Set
Actual Time 6:29 AM EST 4:41 PM EST
Civil Twilight 6:00 AM EST 5:10 PM EST
Nautical Twilight 5:28 AM EST 5:43 PM EST
Astronomical Twilight 4:55 AM EST 6:15 PM EST
Moon 9:42 AM EST (11/6) 7:42 PM EST (11/6)
Length of Visible Light 11h 10m
Length of Day
10h 12m
Waxing Crescent, 13% of the Moon is Illuminated
Nov 6
Waxing Crescent
Nov 10
First Quarter
Nov 17
Full
Nov 25
Last Quarter
Dec 2
New

Hourly Weather History & Observations

Time (EST) Temp. Dew Point Humidity Pressure Visibility Wind Dir Wind Speed Gust Speed Precip Events Conditions
12:52 AM 51.1 °F 41.0 °F 68% 30.49 in 10.0 mi Calm Calm - N/A   Clear
1:52 AM 51.1 °F 42.1 °F 71% 30.48 in 10.0 mi SSW 5.8 mph - N/A   Clear
2:52 AM 50.0 °F 41.0 °F 71% 30.47 in 10.0 mi SSW 4.6 mph - N/A   Clear
3:52 AM 52.0 °F 44.1 °F 74% 30.46 in 10.0 mi South 4.6 mph - N/A   Overcast
4:52 AM 48.9 °F 43.0 °F 80% 30.45 in 10.0 mi Calm Calm - N/A   Overcast
5:14 AM 48.2 °F 42.8 °F 82% 30.45 in 10.0 mi Calm Calm - N/A   Overcast
5:28 AM 50.0 °F 44.6 °F 82% 30.45 in 10.0 mi Calm Calm - N/A   Mostly Cloudy
5:52 AM 46.9 °F 42.1 °F 83% 30.44 in 10.0 mi Calm Calm - N/A   Scattered Clouds
6:52 AM 52.0 °F 45.0 °F 77% 30.43 in 10.0 mi South 6.9 mph - N/A   Clear
7:52 AM 54.0 °F 45.0 °F 72% 30.43 in 10.0 mi SSW 8.1 mph - N/A   Clear
8:52 AM 55.0 °F 46.0 °F 72% 30.42 in 10.0 mi South 8.1 mph - N/A   Clear
9:52 AM 57.0 °F 46.0 °F 67% 30.39 in 10.0 mi SSW 11.5 mph - N/A   Clear
10:52 AM 59.0 °F 44.1 °F 58% 30.38 in 10.0 mi SSW 10.4 mph - N/A   Clear
11:52 AM 59.0 °F 44.1 °F 58% 30.34 in 10.0 mi South 9.2 mph - N/A   Clear
12:52 PM 61.0 °F 43.0 °F 52% 30.29 in 10.0 mi South 11.5 mph - N/A   Clear
1:52 PM 61.0 °F 43.0 °F 52% 30.28 in 10.0 mi SSW 12.7 mph - N/A   Overcast
2:52 PM 59.0 °F 46.9 °F 64% 30.26 in 10.0 mi South 9.2 mph - N/A   Overcast
3:52 PM 59.0 °F 48.0 °F 67% 30.26 in 10.0 mi SSW 13.8 mph - N/A   Overcast
4:52 PM 57.9 °F 48.9 °F 72% 30.24 in 10.0 mi South 10.4 mph - N/A   Overcast
5:52 PM 55.9 °F 50.0 °F 80% 30.22 in 10.0 mi South 8.1 mph - N/A   Scattered Clouds
6:06 PM 55.4 °F 50.0 °F 82% 30.22 in 10.0 mi SSW 9.2 mph - N/A   Mostly Cloudy
6:25 PM 55.4 °F 50.0 °F 82% 30.21 in 10.0 mi SSW 8.1 mph - N/A   Scattered Clouds
6:52 PM 55.9 °F 51.1 °F 84% 30.20 in 10.0 mi SSW 8.1 mph - N/A   Partly Cloudy
7:52 PM 55.9 °F 51.1 °F 84% 30.18 in 10.0 mi SSW 10.4 mph - N/A   Mostly Cloudy
8:52 PM 55.9 °F 52.0 °F 87% 30.16 in 10.0 mi SW 9.2 mph - N/A   Partly Cloudy
9:52 PM 55.9 °F 53.1 °F 90% 30.14 in 10.0 mi SSW 10.4 mph - N/A   Partly Cloudy
10:05 PM 55.4 °F 53.6 °F 94% 30.13 in 10.0 mi SSW 8.1 mph - N/A   Mostly Cloudy
10:52 PM 57.0 °F 54.0 °F 89% 30.11 in 10.0 mi SSW 6.9 mph - N/A   Overcast
11:52 PM 57.0 °F 55.0 °F 93% 30.09 in 10.0 mi SW 4.6 mph - N/A   Overcast